sat.trackr.live / text

‹ back to catalog

STARLINK-36149

NORAD 66969 · 2025-288L

PAYLOAD ACTIVE UNKNOWN

§ Identity

Operator
Country
US
Launch date
2025-12-08
Launch site
AFETR
Launch vehicle
Mass (kg)
RCS (m²)

Purposes: comms

External: N2YO · Heavens-Above · Gunter

§ Orbital elements

Epoch: 2026-09-20T08:19:22.115136Z

Period
94.27 min
Inclination
43.0020°
Eccentricity
0.0001197
Mean motion
15.27594859 rev/d
Perigee alt
482.2 km
Apogee alt
483.8 km
Semi-major
6,861.1 km
B*
6.7176e-4
RAAN
4.4817°
Arg perigee
259.3227°
Mean anomaly
100.7490°
Rev number
4,505

§ Raw data

STARLINK-361491 66969U 25288L   26263.34678374  .00018277  00000+0  67176-3 0  99962 66969  43.0020   4.4817 0001197 259.3227 100.7490 15.27594859 45059

JSON: /api/v1/satellites/66969 · /tle

For live sub-satellite position, see the globe view (requires WebGL).

§ Visibility from observer

Set your observer location to see the next 7 days of passes ≥ 10°. The values pass through the URL so the page stays shareable.

No JS? Fill the form by hand. The geolocation button needs JavaScript.